GFSFLT2_850_spd_159.txt.gz
Wind_Speed
8 6 7 6 5 8 2 8 3 0 3 9 15 15 15 18 20 24 23 24 37 29 27 22 27 29 43 38 27 27 25 29
11 10 8 7 4 5 4 3 3 5 8 6 16 16 12 14 23 16 27 27 35 29 21 17 26 28 32 31 26 25 22 25
3 3 8 3 3 3 1 1 4 5 4 7 9 11 9 12 23 19 23 19 26 29 32 20 24 26 27 20 29 26 27 24
9 8 6 7 7 8 5 9 3 6 5 8 6 8 23 21 23 18 14 17 18 21 16 10 15 24 28 16 36 27 25 25
9 4 2 2 6 4 4 1 5 6 4 3 7 14 24 26 23 19 15 13 14 16 4 2 9 20 23 16 19 17 22 22
6 5 2 3 11 10 5 4 1 1 4 5 6 8 14 24 21 18 16 16 13 8 3 8 2 8 21 29 33 18 6 16
5 3 4 3 10 14 5 9 2 8 12 9 9 9 7 21 23 22 19 14 12 11 2 0 6 5 3 7 14 13 7 26
6 7 6 6 5 10 10 12 10 13 12 8 24 25 24 24 21 22 17 14 13 6 3 1 2 4 9 5 5 9 15 20
4 5 4 4 4 6 5 16 18 17 9 15 13 20 24 28 25 20 17 16 14 13 7 2 5 6 2 4 4 3 9 25
3 4 4 11 14 7 7 19 20 9 19 15 24 26 29 33 27 23 22 17 11 7 5 1 4 5 5 7 6 1 7 10
4 3 4 5 3 4 6 13 20 6 19 24 29 24 25 29 28 26 20 14 12 9 8 3 2 5 4 2 3 5 5 4
1 3 4 4 6 17 3 13 9 3 5 10 25 7 5 32 29 24 20 17 13 4 5 3 4 4 6 5 4 2 3 7
5 5 2 4 5 13 7 10 13 13 13 14 7 15 31 35 31 24 17 13 9 8 9 5 3 3 3 5 5 9 8 9
1 10 7 10 11 7 8 10 7 13 8 18 22 36 40 36 31 27 23 17 9 8 4 3 5 4 2 1 3 7 12 12
5 3 2 5 5 9 14 19 6 14 9 25 38 40 36 32 28 22 17 9 12 12 5 3 7 8 4 4 5 3 4 7
6 3 5 9 14 3 25 28 13 4 14 37 36 37 33 28 24 19 15 14 12 8 5 6 6 10 8 7 5 4 2 6
6 11 16 19 6 7 21 28 12 5 6 22 34 31 30 26 22 21 19 16 12 12 8 5 6 8 12 12 14 4 1 5
5 16 6 17 17 19 22 27 10 28 22 12 31 28 27 27 25 22 19 16 16 13 10 6 4 7 10 13 14 15 4 6
6 9 17 26 26 24 26 26 18 6 21 16 30 28 30 29 24 20 16 17 17 17 13 9 9 11 13 13 15 16 8 3

GFSFLT2_850_spd_162.txt.gz
Wind_Speed
9 8 10 6 2 7 3 3 4 2 6 5 6 3 7 9 19 27 30 32 33 30 30 27 32 31 30 31 30 30 32 32
6 9 3 9 5 3 3 1 1 5 5 4 4 8 5 5 16 18 24 28 31 36 28 29 32 34 33 29 32 24 29 34
3 3 7 1 2 4 5 5 5 4 6 8 12 13 10 10 11 20 25 28 30 31 27 24 30 33 35 30 27 38 29 29
11 5 5 6 8 5 5 3 2 3 6 3 3 8 12 14 21 19 20 21 21 26 33 30 25 25 28 27 25 27 22 27
8 7 4 4 5 5 5 2 3 2 5 2 7 13 26 29 30 27 23 19 18 20 29 30 26 19 31 34 29 22 36 31
8 7 3 1 3 4 5 4 3 4 3 1 11 15 13 25 31 31 24 18 20 16 13 13 13 17 24 31 28 16 12 21
6 6 5 3 2 8 4 7 6 4 7 13 16 18 25 33 29 27 25 19 19 15 12 8 7 10 19 25 22 31 25 24
3 6 8 6 8 5 4 6 4 7 6 4 7 22 22 31 35 31 27 23 19 16 11 9 8 7 11 12 14 24 30 29
3 3 7 2 7 4 3 1 6 5 8 7 7 11 26 31 35 34 31 28 20 17 13 11 7 6 11 10 9 10 12 11
4 3 2 7 4 6 6 4 7 5 8 7 21 37 29 35 37 35 31 30 22 18 13 8 7 11 8 5 4 3 8 8
2 4 5 0 5 6 6 5 5 7 17 12 22 14 11 27 38 36 36 29 22 15 11 8 6 8 9 9 6 5 2 1
3 2 6 6 4 12 7 4 5 13 10 4 19 9 5 29 37 38 35 30 22 15 11 10 5 7 7 7 6 6 5 4
13 5 6 6 1 9 7 5 12 12 23 15 12 21 34 40 42 38 33 29 23 17 12 7 7 6 6 7 10 8 7 6
2 4 6 4 8 6 8 4 9 14 20 27 29 23 39 45 42 37 33 27 21 19 12 9 6 5 6 5 6 7 9 11
2 2 4 4 4 10 2 10 2 8 21 18 19 35 46 45 40 34 30 24 19 17 16 12 7 4 5 3 5 8 6 4
2 4 4 16 13 10 7 13 9 9 7 1 12 31 46 42 37 32 26 22 17 18 17 15 9 2 3 5 7 6 5 6
5 6 7 4 5 3 11 15 13 3 7 16 19 21 10 38 33 27 22 21 21 21 17 15 14 7 1 4 5 9 3 6
4 5 6 7 11 14 9 16 10 7 19 23 20 13 6 17 26 21 20 23 22 19 18 16 13 5 0 4 6 9 7 10
7 8 12 16 16 15 8 6 8 6 12 28 27 10 30 25 26 20 24 25 22 23 20 16 8 4 6 3 7 8 8 5

GFSFLT2_850_spd_165.txt.gz
Wind_Speed
5 6 9 5 3 3 7 3 3 3 6 9 5 5 8 13 19 24 27 30 34 33 33 34 29 38 34 30 30 27 28 27
7 3 3 7 6 2 3 3 3 4 5 6 2 8 7 8 16 22 25 28 29 31 32 31 29 30 31 29 28 28 26 26
2 5 6 3 2 5 5 4 6 3 6 7 8 7 9 10 15 20 25 26 29 32 33 35 30 28 31 33 32 24 27 26
12 6 3 5 5 6 5 4 1 3 6 3 7 8 12 14 15 19 20 21 23 27 26 31 29 28 26 29 34 33 32 35
10 7 5 3 3 5 6 3 5 6 6 1 3 4 16 19 19 17 19 18 17 17 20 24 23 22 21 24 26 28 26 23
11 9 5 4 3 4 5 4 4 5 4 4 4 6 9 19 26 24 22 20 18 16 16 20 21 25 24 25 23 25 23 23
7 6 6 6 11 7 4 6 6 5 8 10 8 10 21 31 30 26 24 23 19 16 15 16 20 21 22 21 23 30 29 31
4 2 5 5 9 8 4 5 2 4 7 3 14 11 13 27 32 30 28 25 22 16 14 14 14 14 13 16 19 26 28 30
3 4 2 2 7 8 6 6 8 6 8 5 8 10 17 25 32 37 33 25 20 16 12 9 8 8 9 11 14 17 20 20
3 3 4 8 3 5 7 9 7 5 6 6 9 17 35 33 39 37 31 24 22 19 15 10 6 4 7 11 12 12 13 14
3 4 4 5 2 7 7 6 2 6 6 1 6 11 12 43 39 36 32 26 25 22 16 11 7 6 6 6 7 6 4 5
4 4 6 5 8 7 4 4 2 2 3 6 15 5 6 38 43 38 32 28 29 23 18 12 10 11 9 8 7 7 8 7
5 5 5 6 6 9 6 6 2 3 5 12 4 10 15 37 40 38 35 34 29 24 17 13 10 11 11 11 11 11 10 9
2 2 5 9 3 4 3 9 7 4 9 8 5 7 10 37 37 40 41 36 28 23 18 13 10 9 9 9 8 9 10 11
5 4 3 5 5 5 4 5 5 10 9 6 9 4 21 37 41 45 42 36 28 23 18 14 10 6 4 4 5 8 8 8
4 3 4 10 10 7 10 10 12 9 7 5 8 11 29 37 48 48 41 34 28 23 19 15 11 7 4 1 5 4 7 8
5 8 13 5 1 6 12 14 7 7 6 4 6 20 29 30 40 45 39 33 27 24 19 15 12 9 3 1 1 5 6 5
4 7 4 7 7 10 13 12 10 4 12 16 18 26 29 33 28 38 34 30 26 21 18 17 16 10 2 1 3 6 8 8
6 15 16 17 16 14 14 14 11 9 13 22 24 23 26 22 23 20 6 29 24 20 21 20 17 9 4 6 6 7 9 8

GFSFLT2_850_spd_168.txt.gz
Wind_Speed
5 5 10 6 5 5 7 3 2 3 7 8 2 4 4 8 14 25 31 31 31 32 33 30 32 30 29 28 28 25 24 24
4 3 1 6 6 3 2 4 3 4 5 5 3 5 3 7 18 21 25 27 28 28 31 31 33 29 27 26 27 25 25 23
3 3 5 2 2 5 5 4 5 2 6 7 8 6 8 9 14 17 20 23 24 25 27 28 31 31 27 27 30 26 26 24
14 3 3 5 7 5 5 4 1 3 6 4 7 6 12 14 15 13 17 19 19 21 23 25 28 30 28 24 29 29 27 27
10 5 2 5 4 4 6 4 6 6 5 2 5 6 13 17 16 14 16 16 17 16 18 19 25 29 30 25 22 26 29 29
8 9 4 4 6 5 6 5 6 6 4 5 7 8 8 18 19 18 18 18 14 11 10 11 14 19 21 20 16 18 20 26
8 9 5 6 7 10 7 6 7 7 9 8 8 8 12 22 21 20 20 16 13 10 10 10 12 15 16 17 18 20 19 19
5 5 7 5 7 9 4 5 2 5 7 6 5 12 11 20 27 27 23 18 14 14 12 10 10 11 13 15 17 19 18 21
5 2 1 3 8 8 5 4 8 6 10 6 5 9 17 20 28 29 24 19 21 17 11 9 8 9 9 10 10 11 12 15
4 1 7 7 2 5 6 5 6 2 4 13 12 24 25 32 35 31 27 23 23 20 16 12 8 6 5 7 9 9 9 10
3 3 5 4 3 3 5 7 7 6 4 5 7 7 17 33 36 36 31 26 24 22 16 12 9 7 6 5 6 7 5 3
3 4 8 6 3 5 4 4 3 6 6 4 12 4 9 34 44 41 34 30 26 24 18 13 11 8 6 5 5 5 5 4
4 3 6 4 8 2 6 5 2 7 9 10 6 8 16 15 36 46 38 35 30 25 19 15 11 9 8 7 5 6 7 7
1 3 6 12 8 4 3 1 4 4 6 9 12 7 11 15 33 46 40 36 33 29 21 16 12 10 8 6 5 6 7 8
3 4 5 15 6 11 8 7 3 6 6 10 13 12 8 14 29 39 40 38 35 29 22 17 12 8 5 2 1 4 6 7
5 4 5 17 19 5 6 11 12 9 10 9 12 14 14 13 29 36 39 38 37 30 24 19 15 11 7 2 2 2 3 4
4 14 24 11 7 7 13 14 13 12 10 10 13 12 17 21 29 31 35 41 36 30 24 19 15 12 8 2 3 4 5 5
3 22 16 14 18 12 15 18 15 14 15 11 10 13 17 23 28 33 29 32 29 24 18 16 15 11 6 5 4 2 3 7
3 28 22 30 22 17 16 14 14 11 11 8 2 8 16 20 23 33 29 27 16 15 20 20 14 12 8 6 4 3 5 7

GFSFLT2_850_spd_171.txt.gz
Wind_Speed
7 6 10 6 8 2 2 1 3 2 6 9 4 1 2 3 7 14 20 25 26 29 31 29 30 30 27 28 27 26 28 25
2 5 4 6 9 4 3 4 7 4 5 8 3 5 3 4 8 12 15 19 21 25 29 29 28 28 27 24 25 25 27 25
2 7 10 5 5 2 2 4 7 6 5 5 7 6 9 9 9 11 15 20 23 25 26 27 26 28 25 24 23 25 26 23
17 6 3 3 7 6 6 5 1 3 5 3 6 5 9 12 13 12 14 17 20 22 22 23 23 25 24 25 23 20 24 24
6 4 4 7 8 11 6 2 8 7 5 2 6 6 11 13 15 15 15 17 17 18 19 20 21 22 24 24 23 20 23 26
12 13 1 5 7 12 15 7 8 10 11 7 8 9 9 14 14 15 18 19 17 15 13 14 17 19 22 23 25 19 19 24
15 16 9 12 13 12 16 15 10 13 12 12 9 10 15 13 12 14 16 20 18 14 12 12 13 15 17 19 21 19 16 16
7 13 13 14 13 13 18 9 9 7 11 9 3 4 10 13 15 18 18 20 18 15 13 13 13 14 15 15 15 15 17 16
12 9 9 11 14 15 11 10 14 10 14 9 7 10 17 17 18 21 21 22 21 17 15 16 14 14 13 13 13 13 13 13
7 6 16 11 4 11 17 10 13 8 8 12 11 7 10 15 18 20 21 23 20 18 18 16 15 13 12 10 9 10 11 11
8 11 10 11 3 4 9 13 13 13 7 7 3 3 11 20 21 21 27 25 20 20 20 18 16 13 10 8 7 7 7 6
5 10 18 13 8 12 7 9 0 11 10 9 6 6 9 3 12 21 19 24 23 24 21 18 15 13 11 9 9 9 8 6
12 10 7 7 16 9 8 5 16 9 10 8 8 9 6 13 12 21 29 29 26 27 25 21 16 13 9 8 8 7 6 6
3 5 11 17 4 1 9 17 14 14 8 3 10 15 16 18 15 18 31 38 32 31 28 22 18 14 10 8 6 5 4 6
4 3 8 8 7 14 13 13 10 15 17 15 16 17 18 18 16 12 24 32 36 32 29 24 18 13 11 8 5 3 3 4
3 1 10 20 20 10 10 12 13 13 17 16 17 17 20 15 13 11 20 29 35 32 30 25 19 17 14 10 4 2 2 3
7 12 14 1 9 14 14 14 14 14 16 15 14 16 13 10 8 9 16 23 27 32 27 23 20 17 13 9 9 7 5 2
10 5 6 13 25 28 22 23 18 15 16 13 13 13 8 6 8 10 20 27 34 33 25 22 19 15 10 7 7 5 3 4
16 13 7 14 34 36 30 24 15 14 14 14 12 11 6 4 6 9 17 24 34 33 29 23 19 15 10 6 6 3 1 5

GFSFLT2_850_spd_174.txt.gz
Wind_Speed
6 10 18 14 9 15 12 9 9 7 5 10 1 1 6 6 7 12 20 28 28 26 26 26 26 27 26 24 23 23 25 24
1 5 6 16 7 8 11 10 12 6 5 8 5 4 7 8 8 10 14 23 25 25 24 25 25 24 24 23 23 23 22 24
8 11 10 8 12 13 13 9 11 12 4 6 2 5 9 8 9 12 15 20 22 22 23 23 22 23 23 23 21 22 24 21
15 14 8 10 14 13 10 10 7 8 11 5 1 3 9 12 12 14 15 18 19 19 19 21 22 22 22 21 22 21 20 23
15 15 9 11 15 17 17 16 14 11 10 7 5 6 10 12 14 15 16 18 18 19 19 20 20 20 22 21 21 21 21 21
14 14 8 7 9 11 17 15 15 15 15 8 8 9 10 15 15 17 17 19 19 19 19 18 19 19 20 20 20 19 19 18
18 20 21 22 19 19 13 17 20 19 14 11 11 8 10 15 18 18 19 20 20 19 17 17 18 18 19 18 20 21 21 17
18 20 23 24 23 21 21 19 18 21 21 14 8 6 10 13 17 20 20 20 19 17 17 16 16 17 17 18 18 21 22 20
19 19 21 22 17 19 23 21 18 18 19 17 9 12 14 12 17 19 21 21 21 19 18 17 17 16 16 16 17 19 20 20
15 17 22 16 18 13 18 19 21 17 19 8 10 14 10 12 15 17 20 22 21 18 17 17 17 16 16 16 16 15 15 14
16 17 19 17 11 8 13 15 16 17 16 12 7 6 14 12 9 11 16 20 21 19 19 19 18 17 17 15 13 13 12 13
16 20 23 17 10 8 7 11 12 15 13 12 9 7 2 8 4 9 13 19 22 23 23 21 19 18 16 15 15 13 12 11
14 19 21 6 12 10 12 5 15 13 11 12 7 8 7 6 6 3 12 18 21 22 23 24 22 19 17 15 14 13 12 12
11 12 11 16 9 8 12 13 13 11 11 11 12 15 12 10 7 4 9 19 24 26 24 21 22 21 19 16 14 13 11 10
5 5 13 7 13 15 16 13 10 13 13 13 15 15 13 12 10 9 6 19 25 26 27 24 20 20 19 17 14 12 11 10
9 4 7 17 19 8 8 10 13 15 15 14 17 16 15 13 11 9 7 17 25 28 27 27 22 19 19 17 14 12 11 9
15 18 21 14 6 8 12 15 14 14 16 15 17 16 14 14 12 7 7 15 25 31 30 29 26 22 22 18 16 14 12 9
12 20 15 18 18 16 15 19 18 17 16 14 13 15 13 12 9 6 9 17 26 30 30 31 29 25 23 20 17 14 11 6
21 23 23 20 17 17 20 21 19 18 15 15 14 14 13 10 6 6 11 18 29 27 25 26 27 21 20 20 17 13 9 4